This is the latest recevied weather packets stored in our database for station/object WD0REW. If no packets are shown the sender has not sent any weather packets the latest 10 day(s).
| Time | Temp. | Humidity | Pressure | Rain* | Wind** | Luminosity | Snow |
|---|---|---|---|---|---|---|---|
| 1777424624 | 14.44° C | 94% | 1012.9 hPa | 0 mm | - | 0 W/m² | - |
| 1777424319 | 14.44° C | 94% | 1013 hPa | 0 mm | - | 0 W/m² | - |
| 1777424015 | 15° C | 94% | 1012.8 hPa | 0 mm | - | 1 W/m² | - |
| 1777423712 | 15° C | 94% | 1012.7 hPa | 0 mm | - | 1 W/m² | - |
| 1777423408 | 15° C | 94% | 1012.8 hPa | 0 mm | - | 3 W/m² | - |
| 1777423107 | 15.56° C | 94% | 1012.6 hPa | 0 mm | - | 4 W/m² | - |
| 1777422803 | 15.56° C | 94% | 1012.7 hPa | 1.27 mm | - | 3 W/m² | - |
| 1777422499 | 15.56° C | 94% | 1012.4 hPa | 1.27 mm | - | 7 W/m² | - |
| 1777422194 | 15.56° C | 94% | 1012.4 hPa | 0 mm | - | 8 W/m² | - |
| 1777421893 | 16.11° C | 94% | 1012.4 hPa | 1.78 mm | - | 9 W/m² | - |
| 1777421589 | 16.11° C | 93% | 1012.4 hPa | 6.1 mm | - | 10 W/m² | - |
| 1777421285 | 16.11° C | 93% | 1012.6 hPa | 11.94 mm | - | 8 W/m² | - |
| 1777420981 | 16.67° C | 92% | 1012.5 hPa | 4.83 mm | - | 9 W/m² | - |
| 1777420678 | 16.67° C | 93% | 1012.4 hPa | 0 mm | - | 8 W/m² | - |
| 1777420374 | 16.67° C | 93% | 1012.4 hPa | 0 mm | - | 8 W/m² | - |
| 1777420070 | 16.67° C | 92% | 1011.9 hPa | 0 mm | - | 21 W/m² | - |
| 1777419767 | 16.67° C | 91% | 1011.7 hPa | 0 mm | - | 7 W/m² | - |
| 1777419464 | 16.67° C | 90% | 1011.8 hPa | 0 mm | - | 7 W/m² | - |
| 1777419163 | 16.67° C | 91% | 1012.3 hPa | 0 mm | - | 15 W/m² | - |
| 1777418858 | 16.67° C | 90% | 1011.8 hPa | 0 mm | - | 32 W/m² | - |
| 1777418555 | 16.67° C | 90% | 1011.8 hPa | 0 mm | - | 102 W/m² | - |
| 1777418251 | 16.67° C | 90% | 1011.6 hPa | 0 mm | - | 59 W/m² | - |
| 1777417947 | 16.67° C | 92% | 1011.4 hPa | 0 mm | - | 94 W/m² | - |
| 1777417643 | 16.67° C | 93% | 1011.3 hPa | 0 mm | - | 147 W/m² | - |
| 1777417338 | 16.67° C | 92% | 1011.8 hPa | 0 mm | - | 48 W/m² | - |
* Rain latest hour (hover to see other rain measurements)
** Current wind speed in m/s (hover to see current wind gust speed)